Time,TemperatureF,DewpointF,PressureIn,WindDirection,WindDirectionDegrees,WindSpeedMPH,WindSpeedGustMPH,Humidity,HourlyPrecipIn,Conditions,Clouds,dailyrainin,SoftwareType,DateUTC
2013-12-05 00:01:00,30.0,27.7,30.15,West,281,0.0,0.0,91,0.00,,,0.00,WeatherCatV1.22B15,2013-12-05 05:01:00,
2013-12-05 00:06:00,30.0,28.0,30.15,West,281,0.0,0.0,92,0.00,,,0.00,WeatherCatV1.22B15,2013-12-05 05:06:00,
2013-12-05 00:11:00,30.0,28.0,30.14,West,281,0.0,0.0,92,0.00,,,0.00,WeatherCatV1.22B15,2013-12-05 05:11:00,
2013-12-05 00:16:00,30.0,28.0,30.14,West,281,0.0,0.0,92,0.00,,,0.00,WeatherCatV1.22B15,2013-12-05 05:16:00,
2013-12-05 00:21:00,30.1,28.1,30.14,West,281,0.0,0.0,92,0.00,,,0.00,WeatherCatV1.22B15,2013-12-05 05:21:00,
2013-12-05 00:26:00,30.2,28.2,30.14,West,281,0.0,0.0,92,0.00,,,0.00,WeatherCatV1.22B15,2013-12-05 05:26:00,
2013-12-05 00:31:00,30.4,28.4,30.14,West,281,0.0,0.0,92,0.00,,,0.00,WeatherCatV1.22B15,2013-12-05 05:31:00,
2013-12-05 00:36:00,30.5,28.5,30.13,West,281,0.0,0.0,92,0.00,,,0.00,WeatherCatV1.22B15,2013-12-05 05:36:00,
2013-12-05 00:41:00,30.6,28.6,30.13,West,281,0.0,0.0,92,0.00,,,0.00,WeatherCatV1.22B15,2013-12-05 05:41:00,
2013-12-05 00:46:00,30.7,28.7,30.13,West,281,0.0,0.0,92,0.00,,,0.00,WeatherCatV1.22B15,2013-12-05 05:46:00,
2013-12-05 00:51:00,30.7,28.7,30.13,West,281,0.0,0.0,92,0.00,,,0.00,WeatherCatV1.22B15,2013-12-05 05:51:00,
2013-12-05 00:56:00,30.8,28.8,30.13,West,281,0.0,0.0,92,0.00,,,0.00,WeatherCatV1.22B15,2013-12-05 05:56:00,
2013-12-05 01:01:00,30.8,28.8,30.13,West,281,0.0,0.0,92,0.00,,,0.00,WeatherCatV1.22B15,2013-12-05 06:01:00,
2013-12-05 01:06:00,31.0,29.0,30.14,West,281,0.0,0.0,92,0.00,,,0.00,WeatherCatV1.22B15,2013-12-05 06:06:00,
2013-12-05 01:11:00,31.1,29.0,30.14,West,281,0.0,0.0,92,0.00,,,0.00,WeatherCatV1.22B15,2013-12-05 06:11:00,
2013-12-05 01:16:00,31.2,29.1,30.14,West,281,0.0,0.0,92,0.00,,,0.00,WeatherCatV1.22B15,2013-12-05 06:16:00,
2013-12-05 01:21:00,31.4,29.4,30.14,West,281,0.0,0.0,92,0.00,,,0.00,WeatherCatV1.22B15,2013-12-05 06:21:00,
2013-12-05 01:26:00,31.5,29.5,30.14,West,281,0.0,0.0,92,0.00,,,0.00,WeatherCatV1.22B15,2013-12-05 06:26:00,
2013-12-05 01:31:00,31.6,29.5,30.14,West,281,0.0,0.0,92,0.00,,,0.00,WeatherCatV1.22B15,2013-12-05 06:31:00,
2013-12-05 01:36:00,31.7,29.4,30.15,West,281,0.0,0.0,91,0.00,,,0.00,WeatherCatV1.22B15,2013-12-05 06:36:00,
2013-12-05 01:41:00,31.8,29.5,30.15,West,281,0.0,0.0,91,0.00,,,0.00,WeatherCatV1.22B15,2013-12-05 06:41:00,
2013-12-05 01:46:00,31.9,29.9,30.15,West,281,0.0,0.0,92,0.00,,,0.00,WeatherCatV1.22B15,2013-12-05 06:46:00,
2013-12-05 01:51:00,32.1,29.8,30.15,West,281,0.0,0.0,91,0.00,,,0.00,WeatherCatV1.22B15,2013-12-05 06:51:00,
2013-12-05 01:56:00,32.1,29.8,30.15,West,281,0.0,0.0,91,0.00,,,0.00,WeatherCatV1.22B15,2013-12-05 06:56:00,
2013-12-05 02:01:00,32.2,29.9,30.16,West,281,0.0,0.0,91,0.00,,,0.00,WeatherCatV1.22B15,2013-12-05 07:01:00,
2013-12-05 02:06:00,32.3,30.0,30.16,West,281,0.0,0.0,91,0.00,,,0.00,WeatherCatV1.22B15,2013-12-05 07:06:00,
2013-12-05 02:11:00,32.4,30.1,30.15,West,281,0.0,0.0,91,0.00,,,0.00,WeatherCatV1.22B15,2013-12-05 07:11:00,
2013-12-05 02:16:00,32.5,30.2,30.15,West,281,0.0,0.0,91,0.00,,,0.00,WeatherCatV1.22B15,2013-12-05 07:16:00,
2013-12-05 02:21:00,32.5,30.2,30.14,West,281,0.0,1.0,91,0.00,,,0.00,WeatherCatV1.22B15,2013-12-05 07:21:00,
2013-12-05 02:26:00,32.5,30.2,30.14,West,281,0.0,0.0,91,0.00,,,0.00,WeatherCatV1.22B15,2013-12-05 07:26:00,
2013-12-05 02:31:00,32.4,30.1,30.14,West,281,0.0,0.0,91,0.00,,,0.00,WeatherCatV1.22B15,2013-12-05 07:31:00,
2013-12-05 02:36:00,32.4,29.8,30.13,West,281,0.0,0.0,90,0.00,,,0.00,WeatherCatV1.22B15,2013-12-05 07:36:00,
2013-12-05 02:41:00,32.2,29.6,30.14,West,281,0.0,0.0,90,0.00,,,0.00,WeatherCatV1.22B15,2013-12-05 07:41:00,
2013-12-05 02:46:00,32.2,29.9,30.13,West,281,0.0,0.0,91,0.00,,,0.00,WeatherCatV1.22B15,2013-12-05 07:46:00,
2013-12-05 02:51:00,32.1,29.8,30.14,West,281,0.0,0.0,91,0.00,,,0.00,WeatherCatV1.22B15,2013-12-05 07:51:00,
2013-12-05 02:56:00,32.1,29.8,30.14,West,281,0.0,0.0,91,0.00,,,0.00,WeatherCatV1.22B15,2013-12-05 07:56:00,
2013-12-05 03:01:00,32.1,29.8,30.14,West,281,0.0,0.0,91,0.00,,,0.00,WeatherCatV1.22B15,2013-12-05 08:01:00,
2013-12-05 03:06:00,32.3,30.0,30.14,West,281,0.0,0.0,91,0.00,,,0.00,WeatherCatV1.22B15,2013-12-05 08:06:00,
2013-12-05 03:11:00,32.4,30.1,30.14,West,281,0.0,0.0,91,0.00,,,0.00,WeatherCatV1.22B15,2013-12-05 08:11:00,
2013-12-05 03:16:00,32.5,30.4,30.14,West,281,0.0,0.0,92,0.00,,,0.00,WeatherCatV1.22B15,2013-12-05 08:16:00,
2013-12-05 03:21:00,32.5,30.2,30.14,West,281,0.0,0.0,91,0.00,,,0.00,WeatherCatV1.22B15,2013-12-05 08:21:00,
2013-12-05 03:26:00,32.5,30.2,30.14,West,281,0.0,0.0,91,0.00,,,0.00,WeatherCatV1.22B15,2013-12-05 08:26:00,
2013-12-05 03:31:00,32.4,30.1,30.14,West,281,0.0,0.0,91,0.00,,,0.00,WeatherCatV1.22B15,2013-12-05 08:31:00,
2013-12-05 03:36:00,32.4,30.1,30.14,West,281,0.0,0.0,91,0.00,,,0.00,WeatherCatV1.22B15,2013-12-05 08:36:00,
2013-12-05 03:41:00,32.4,30.3,30.14,West,281,0.0,0.0,92,0.00,,,0.00,WeatherCatV1.22B15,2013-12-05 08:41:00,
2013-12-05 03:46:00,32.5,30.2,30.14,West,281,0.0,0.0,91,0.00,,,0.00,WeatherCatV1.22B15,2013-12-05 08:46:00,
2013-12-05 03:51:00,32.5,30.2,30.13,West,281,0.0,0.0,91,0.00,,,0.00,WeatherCatV1.22B15,2013-12-05 08:51:00,
2013-12-05 03:56:00,32.5,30.4,30.13,West,281,0.0,0.0,92,0.00,,,0.00,WeatherCatV1.22B15,2013-12-05 08:56:00,
2013-12-05 04:01:00,32.5,30.2,30.13,West,281,0.0,0.0,91,0.00,,,0.00,WeatherCatV1.22B15,2013-12-05 09:01:00,
2013-12-05 04:06:00,32.5,30.4,30.13,West,281,0.0,0.0,92,0.00,,,0.00,WeatherCatV1.22B15,2013-12-05 09:06:00,
2013-12-05 04:11:00,32.5,30.4,30.14,West,281,0.0,0.0,92,0.00,,,0.00,WeatherCatV1.22B15,2013-12-05 09:11:00,
2013-12-05 04:16:00,32.7,30.6,30.15,West,281,0.0,0.0,92,0.00,,,0.00,WeatherCatV1.22B15,2013-12-05 09:16:00,
2013-12-05 04:21:00,32.8,30.7,30.15,West,281,0.0,0.0,92,0.00,,,0.00,WeatherCatV1.22B15,2013-12-05 09:21:00,
2013-12-05 04:26:00,33.3,31.2,30.15,West,281,0.0,0.0,92,0.00,,,0.00,WeatherCatV1.22B15,2013-12-05 09:26:00,
2013-12-05 04:31:00,33.5,31.4,30.14,West,281,0.0,0.0,92,0.00,,,0.00,WeatherCatV1.22B15,2013-12-05 09:31:00,
2013-12-05 04:36:00,33.7,31.6,30.14,West,281,0.0,0.0,92,0.00,,,0.00,WeatherCatV1.22B15,2013-12-05 09:36:00,
2013-12-05 04:41:00,33.9,31.6,30.15,West,281,0.0,0.0,91,0.00,,,0.00,WeatherCatV1.22B15,2013-12-05 09:41:00,
2013-12-05 04:46:00,34.2,31.9,30.15,West,281,0.0,0.0,91,0.00,,,0.00,WeatherCatV1.22B15,2013-12-05 09:46:00,
2013-12-05 04:51:00,34.4,32.0,30.15,West,281,0.0,0.0,91,0.00,,,0.00,WeatherCatV1.22B15,2013-12-05 09:51:00,
2013-12-05 04:56:00,34.5,32.2,30.15,West,281,0.0,0.0,91,0.00,,,0.00,WeatherCatV1.22B15,2013-12-05 09:56:00,
2013-12-05 05:01:00,34.5,32.2,30.15,West,281,0.0,0.0,91,0.00,,,0.00,WeatherCatV1.22B15,2013-12-05 10:01:00,
2013-12-05 05:06:00,34.6,32.2,30.15,West,281,0.0,0.0,91,0.00,,,0.00,WeatherCatV1.22B15,2013-12-05 10:06:00,
2013-12-05 05:11:00,34.7,32.3,30.15,West,281,0.0,0.0,91,0.00,,,0.00,WeatherCatV1.22B15,2013-12-05 10:11:00,
2013-12-05 05:16:00,34.8,32.5,30.15,West,281,0.0,0.0,91,0.00,,,0.00,WeatherCatV1.22B15,2013-12-05 10:16:00,
2013-12-05 05:21:00,34.9,32.5,30.15,West,281,0.0,0.0,91,0.00,,,0.00,WeatherCatV1.22B15,2013-12-05 10:21:00,
2013-12-05 05:26:00,35.0,32.4,30.15,West,281,0.0,0.0,90,0.00,,,0.00,WeatherCatV1.22B15,2013-12-05 10:26:00,
2013-12-05 05:31:00,35.0,32.4,30.15,West,281,0.0,0.0,90,0.00,,,0.00,WeatherCatV1.22B15,2013-12-05 10:31:00,
2013-12-05 05:36:00,35.2,32.6,30.15,West,281,0.0,0.0,90,0.00,,,0.00,WeatherCatV1.22B15,2013-12-05 10:36:00,
2013-12-05 05:41:00,35.4,32.8,30.15,West,281,0.0,0.0,90,0.00,,,0.00,WeatherCatV1.22B15,2013-12-05 10:41:00,
2013-12-05 05:46:00,35.5,32.9,30.15,West,281,0.0,0.0,90,0.00,,,0.00,WeatherCatV1.22B15,2013-12-05 10:46:00,
2013-12-05 05:51:00,35.7,32.8,30.14,West,281,0.0,0.0,89,0.00,,,0.00,WeatherCatV1.22B15,2013-12-05 10:51:00,
2013-12-05 05:56:00,35.8,32.9,30.14,West,281,0.0,0.0,89,0.00,,,0.00,WeatherCatV1.22B15,2013-12-05 10:56:00,
2013-12-05 06:01:00,35.9,33.3,30.14,West,281,0.0,0.0,90,0.00,,,0.00,WeatherCatV1.22B15,2013-12-05 11:01:00,
2013-12-05 06:06:00,36.0,33.1,30.15,West,281,0.0,0.0,89,0.00,,,0.00,WeatherCatV1.22B15,2013-12-05 11:06:00,
2013-12-05 06:11:00,36.2,33.3,30.14,West,281,0.0,0.0,89,0.00,,,0.00,WeatherCatV1.22B15,2013-12-05 11:11:00,
2013-12-05 06:16:00,36.4,33.5,30.14,West,281,0.0,0.0,89,0.00,,,0.00,WeatherCatV1.22B15,2013-12-05 11:16:00,
2013-12-05 06:21:00,36.6,33.4,30.13,West,281,0.0,0.0,88,0.00,,,0.00,WeatherCatV1.22B15,2013-12-05 11:21:00,
2013-12-05 06:26:00,36.7,33.5,30.13,West,281,0.0,0.0,88,0.00,,,0.00,WeatherCatV1.22B15,2013-12-05 11:26:00,
2013-12-05 06:31:00,36.8,33.6,30.13,West,281,0.0,0.0,88,0.00,,,0.00,WeatherCatV1.22B15,2013-12-05 11:31:00,
2013-12-05 06:36:00,36.9,33.7,30.13,West,281,0.0,0.0,88,0.00,,,0.00,WeatherCatV1.22B15,2013-12-05 11:36:00,
2013-12-05 06:41:00,37.1,33.9,30.13,West,281,0.0,0.0,88,0.00,,,0.00,WeatherCatV1.22B15,2013-12-05 11:41:00,
2013-12-05 06:46:00,37.3,34.1,30.13,West,281,0.0,0.0,88,0.00,,,0.00,WeatherCatV1.22B15,2013-12-05 11:46:00,
2013-12-05 06:51:00,37.5,34.0,30.12,West,281,0.0,0.0,87,0.00,,,0.00,WeatherCatV1.22B15,2013-12-05 11:51:00,
2013-12-05 06:56:00,37.7,34.2,30.12,West,281,0.0,0.0,87,0.00,,,0.00,WeatherCatV1.22B15,2013-12-05 11:56:00,
2013-12-05 07:01:00,37.9,34.4,30.12,West,281,0.0,0.0,87,0.00,,,0.00,WeatherCatV1.22B15,2013-12-05 12:01:00,
2013-12-05 07:06:00,38.1,34.6,30.12,West,281,0.0,0.0,87,0.00,,,0.00,WeatherCatV1.22B15,2013-12-05 12:06:00,
2013-12-05 07:11:00,38.3,34.5,30.12,West,281,0.0,0.0,86,0.00,,,0.00,WeatherCatV1.22B15,2013-12-05 12:11:00,
2013-12-05 07:16:00,38.4,34.6,30.12,West,281,0.0,0.0,86,0.00,,,0.00,WeatherCatV1.22B15,2013-12-05 12:16:00,
2013-12-05 07:21:00,38.7,34.9,30.12,West,281,0.0,0.0,86,0.00,,,0.00,WeatherCatV1.22B15,2013-12-05 12:21:00,
2013-12-05 07:26:00,38.9,34.8,30.12,West,281,0.0,0.0,85,0.00,,,0.00,WeatherCatV1.22B15,2013-12-05 12:26:00,
2013-12-05 07:31:00,39.0,34.9,30.12,West,281,0.0,0.0,85,0.00,,,0.00,WeatherCatV1.22B15,2013-12-05 12:31:00,
2013-12-05 07:36:00,39.2,35.1,30.13,West,281,0.0,0.0,85,0.00,,,0.00,WeatherCatV1.22B15,2013-12-05 12:36:00,
2013-12-05 07:41:00,39.4,35.0,30.13,West,281,0.0,0.0,84,0.00,,,0.00,WeatherCatV1.22B15,2013-12-05 12:41:00,
2013-12-05 07:46:00,39.6,35.2,30.13,West,281,0.0,0.0,84,0.00,,,0.00,WeatherCatV1.22B15,2013-12-05 12:46:00,
2013-12-05 07:51:00,39.7,35.3,30.12,West,281,0.0,0.0,84,0.00,,,0.00,WeatherCatV1.22B15,2013-12-05 12:51:00,
2013-12-05 07:56:00,39.9,35.2,30.12,West,281,0.0,0.0,83,0.00,,,0.00,WeatherCatV1.22B15,2013-12-05 12:56:00,
2013-12-05 08:01:00,40.1,35.4,30.12,West,281,0.0,0.0,83,0.00,,,0.00,WeatherCatV1.22B15,2013-12-05 13:01:00,
2013-12-05 08:06:00,40.3,35.5,30.12,West,281,0.0,0.0,83,0.00,,,0.00,WeatherCatV1.22B15,2013-12-05 13:06:00,
2013-12-05 08:11:00,40.4,36.0,30.12,West,281,0.0,0.0,84,0.00,,,0.00,WeatherCatV1.22B15,2013-12-05 13:11:00,
2013-12-05 08:16:00,40.5,36.0,30.12,West,281,0.0,0.0,84,0.00,,,0.00,WeatherCatV1.22B15,2013-12-05 13:16:00,
2013-12-05 08:21:00,40.6,35.8,30.12,West,281,0.0,0.0,83,0.00,,,0.00,WeatherCatV1.22B15,2013-12-05 13:21:00,
2013-12-05 08:26:00,40.8,35.7,30.11,WNW,284,0.0,2.0,82,0.00,,,0.00,WeatherCatV1.22B15,2013-12-05 13:26:00,
2013-12-05 08:31:00,41.0,35.9,30.11,WNW,284,0.0,0.0,82,0.00,,,0.00,WeatherCatV1.22B15,2013-12-05 13:31:00,
2013-12-05 08:36:00,41.2,36.1,30.12,WNW,284,0.0,0.0,82,0.00,,,0.00,WeatherCatV1.22B15,2013-12-05 13:36:00,
2013-12-05 08:41:00,41.4,36.3,30.12,WNW,284,0.0,0.0,82,0.00,,,0.00,WeatherCatV1.22B15,2013-12-05 13:41:00,
2013-12-05 08:46:00,41.6,36.2,30.11,WNW,284,0.0,0.0,81,0.00,,,0.00,WeatherCatV1.22B15,2013-12-05 13:46:00,
2013-12-05 08:51:00,41.8,36.1,30.11,WNW,284,0.0,0.0,80,0.00,,,0.00,WeatherCatV1.22B15,2013-12-05 13:51:00,
2013-12-05 08:56:00,42.0,36.3,30.11,WNW,284,0.0,0.0,80,0.00,,,0.00,WeatherCatV1.22B15,2013-12-05 13:56:00,
2013-12-05 09:01:00,42.3,36.6,30.10,WNW,285,0.0,1.0,80,0.00,,,0.00,WeatherCatV1.22B15,2013-12-05 14:01:00,
2013-12-05 09:06:00,42.5,36.5,30.10,NNW,341,0.0,0.0,79,0.00,,,0.00,WeatherCatV1.22B15,2013-12-05 14:06:00,
2013-12-05 09:11:00,42.7,36.7,30.11,NNW,341,0.0,0.0,79,0.00,,,0.00,WeatherCatV1.22B15,2013-12-05 14:11:00,
2013-12-05 09:16:00,42.9,36.8,30.10,NNW,342,0.0,0.0,79,0.00,,,0.00,WeatherCatV1.22B15,2013-12-05 14:16:00,
2013-12-05 09:21:00,43.1,37.0,30.10,NNW,342,0.0,1.0,79,0.00,,,0.00,WeatherCatV1.22B15,2013-12-05 14:21:00,
2013-12-05 09:26:00,43.2,37.1,30.10,NNW,342,0.0,0.0,79,0.00,,,0.00,WeatherCatV1.22B15,2013-12-05 14:26:00,
2013-12-05 09:31:00,43.4,37.7,30.10,North,7,0.0,0.0,80,0.00,,,0.00,WeatherCatV1.22B15,2013-12-05 14:31:00,
2013-12-05 09:36:00,43.5,37.8,30.10,North,7,0.0,0.0,80,0.00,,,0.00,WeatherCatV1.22B15,2013-12-05 14:36:00,
2013-12-05 09:41:00,43.7,37.6,30.10,North,7,0.0,1.0,79,0.00,,,0.00,WeatherCatV1.22B15,2013-12-05 14:41:00,
2013-12-05 09:46:00,43.8,38.0,30.09,North,7,0.0,0.0,80,0.00,,,0.00,WeatherCatV1.22B15,2013-12-05 14:46:00,
2013-12-05 09:51:00,44.0,38.2,30.09,North,7,0.0,0.0,80,0.00,,,0.00,WeatherCatV1.22B15,2013-12-05 14:51:00,
2013-12-05 09:56:00,44.2,38.4,30.09,North,7,0.0,0.0,80,0.00,,,0.00,WeatherCatV1.22B15,2013-12-05 14:56:00,
2013-12-05 10:01:00,44.3,38.5,30.10,North,7,0.0,0.0,80,0.00,,,0.00,WeatherCatV1.22B15,2013-12-05 15:01:00,
2013-12-05 10:06:00,44.5,38.7,30.10,North,7,0.0,0.0,80,0.00,,,0.00,WeatherCatV1.22B15,2013-12-05 15:06:00,
2013-12-05 10:11:00,44.5,38.7,30.09,North,7,0.0,0.0,80,0.00,,,0.00,WeatherCatV1.22B15,2013-12-05 15:11:00,
2013-12-05 10:16:00,44.5,39.0,30.09,North,7,0.0,0.0,81,0.00,,,0.00,WeatherCatV1.22B15,2013-12-05 15:16:00,
2013-12-05 10:21:00,44.6,39.1,30.09,North,7,0.0,0.0,81,0.00,,,0.00,WeatherCatV1.22B15,2013-12-05 15:21:00,
2013-12-05 10:26:00,44.7,39.2,30.09,North,7,0.0,0.0,81,0.00,,,0.00,WeatherCatV1.22B15,2013-12-05 15:26:00,
2013-12-05 10:31:00,44.9,39.7,30.09,North,7,0.0,0.0,82,0.00,,,0.00,WeatherCatV1.22B15,2013-12-05 15:31:00,
2013-12-05 10:36:00,45.2,40.7,30.08,NNE,12,0.0,0.0,84,0.00,,,0.00,WeatherCatV1.22B15,2013-12-05 15:36:00,
2013-12-05 10:41:00,45.5,41.0,30.08,NNE,12,0.0,0.0,84,0.00,,,0.00,WeatherCatV1.22B15,2013-12-05 15:41:00,
2013-12-05 10:46:00,45.8,41.2,30.07,NNE,12,0.0,0.0,84,0.00,,,0.00,WeatherCatV1.22B15,2013-12-05 15:46:00,
2013-12-05 10:51:00,46.1,41.5,30.07,NNE,12,0.0,0.0,84,0.00,,,0.00,WeatherCatV1.22B15,2013-12-05 15:51:00,
2013-12-05 10:56:00,46.3,41.7,30.08,North,357,0.0,0.0,84,0.00,,,0.00,WeatherCatV1.22B15,2013-12-05 15:56:00,
2013-12-05 11:01:00,46.5,41.9,30.08,North,357,0.0,1.0,84,0.00,,,0.00,WeatherCatV1.22B15,2013-12-05 16:01:00,
2013-12-05 11:06:00,46.6,42.3,30.07,North,357,0.0,1.0,85,0.00,,,0.00,WeatherCatV1.22B15,2013-12-05 16:06:00,
2013-12-05 11:11:00,46.5,42.5,30.07,ESE,118,0.0,0.0,86,0.00,,,0.00,WeatherCatV1.22B15,2013-12-05 16:11:00,
2013-12-05 11:16:00,46.4,42.7,30.07,South,169,0.0,0.0,87,0.00,,,0.00,WeatherCatV1.22B15,2013-12-05 16:16:00,
2013-12-05 11:21:00,46.3,42.9,30.07,South,169,0.0,0.0,88,0.00,,,0.00,WeatherCatV1.22B15,2013-12-05 16:21:00,
2013-12-05 11:26:00,46.2,43.1,30.07,South,169,0.0,0.0,89,0.00,,,0.00,WeatherCatV1.22B15,2013-12-05 16:26:00,
2013-12-05 11:31:00,46.1,43.3,30.06,South,169,0.0,0.0,90,0.00,,,0.00,WeatherCatV1.22B15,2013-12-05 16:31:00,
2013-12-05 11:36:00,46.0,43.5,30.06,South,169,0.0,0.0,91,0.00,,,0.00,WeatherCatV1.22B15,2013-12-05 16:36:00,
2013-12-05 11:41:00,46.0,43.8,30.06,South,169,0.0,0.0,92,0.00,,,0.00,WeatherCatV1.22B15,2013-12-05 16:41:00,
2013-12-05 11:46:00,46.1,43.9,30.05,South,169,0.0,0.0,92,0.00,,,0.00,WeatherCatV1.22B15,2013-12-05 16:46:00,
2013-12-05 11:51:00,46.2,44.0,30.05,South,169,0.0,0.0,92,0.00,,,0.00,WeatherCatV1.22B15,2013-12-05 16:51:00,
2013-12-05 11:56:00,46.3,44.1,30.05,South,169,0.0,0.0,92,0.00,,,0.00,WeatherCatV1.22B15,2013-12-05 16:56:00,
2013-12-05 12:01:00,46.3,44.1,30.05,South,169,0.0,0.0,92,0.00,,,0.00,WeatherCatV1.22B15,2013-12-05 17:01:00,
2013-12-05 12:06:00,46.4,44.2,30.05,South,169,0.0,0.0,92,0.00,,,0.00,WeatherCatV1.22B15,2013-12-05 17:06:00,
2013-12-05 12:11:00,46.5,44.3,30.05,South,169,0.0,0.0,92,0.00,,,0.00,WeatherCatV1.22B15,2013-12-05 17:11:00,
2013-12-05 12:16:00,46.5,44.3,30.03,South,169,0.0,0.0,92,0.00,,,0.00,WeatherCatV1.22B15,2013-12-05 17:16:00,
2013-12-05 12:21:00,46.5,44.0,30.03,South,169,0.0,0.0,91,0.00,,,0.00,WeatherCatV1.22B15,2013-12-05 17:21:00,
2013-12-05 12:26:00,46.6,44.1,30.02,South,169,0.0,0.0,91,0.00,,,0.00,WeatherCatV1.22B15,2013-12-05 17:26:00,
2013-12-05 12:31:00,46.8,44.6,30.02,South,169,0.0,0.0,92,0.00,,,0.00,WeatherCatV1.22B15,2013-12-05 17:31:00,
2013-12-05 12:36:00,47.0,44.8,30.01,South,169,0.0,0.0,92,0.00,,,0.00,WeatherCatV1.22B15,2013-12-05 17:36:00,
2013-12-05 12:41:00,47.3,45.1,30.02,South,169,0.0,0.0,92,0.00,,,0.00,WeatherCatV1.22B15,2013-12-05 17:41:00,
2013-12-05 12:46:00,47.5,45.0,30.02,South,169,0.0,0.0,91,0.00,,,0.00,WeatherCatV1.22B15,2013-12-05 17:46:00,
2013-12-05 12:51:00,47.7,45.2,30.01,South,169,0.0,0.0,91,0.00,,,0.01,WeatherCatV1.22B15,2013-12-05 17:51:00,
2013-12-05 12:56:00,47.9,45.1,30.01,South,169,0.0,1.0,90,0.00,,,0.01,WeatherCatV1.22B15,2013-12-05 17:56:00,
2013-12-05 13:01:00,48.1,45.3,30.01,South,169,0.0,1.0,90,0.00,,,0.01,WeatherCatV1.22B15,2013-12-05 18:01:00,
2013-12-05 13:06:00,48.3,45.5,30.00,South,169,0.0,0.0,90,0.00,,,0.01,WeatherCatV1.22B15,2013-12-05 18:06:00,
2013-12-05 13:11:00,48.5,45.7,30.00,South,169,0.0,2.0,90,0.00,,,0.01,WeatherCatV1.22B15,2013-12-05 18:11:00,
2013-12-05 13:16:00,48.7,45.9,30.00,South,169,0.0,0.0,90,0.00,,,0.01,WeatherCatV1.22B15,2013-12-05 18:16:00,
2013-12-05 13:21:00,49.0,46.2,29.99,South,172,0.0,1.0,90,0.00,,,0.01,WeatherCatV1.22B15,2013-12-05 18:21:00,
2013-12-05 13:26:00,49.2,46.4,29.99,South,172,0.0,0.0,90,0.00,,,0.01,WeatherCatV1.22B15,2013-12-05 18:26:00,
2013-12-05 13:31:00,49.4,46.6,29.99,South,172,0.0,0.0,90,0.00,,,0.01,WeatherCatV1.22B15,2013-12-05 18:31:00,
2013-12-05 13:36:00,49.5,46.7,29.99,South,171,0.0,0.0,90,0.00,,,0.01,WeatherCatV1.22B15,2013-12-05 18:36:00,
2013-12-05 13:41:00,49.6,46.8,29.99,South,171,0.0,1.0,90,0.00,,,0.01,WeatherCatV1.22B15,2013-12-05 18:41:00,
2013-12-05 13:46:00,49.7,46.9,29.99,South,171,0.0,0.0,90,0.00,,,0.01,WeatherCatV1.22B15,2013-12-05 18:46:00,
2013-12-05 13:52:00,49.7,46.6,29.98,South,171,0.0,0.0,89,0.00,,,0.01,WeatherCatV1.22B15,2013-12-05 18:52:00,
2013-12-05 13:57:00,49.7,46.9,29.97,South,171,0.0,0.0,90,0.00,,,0.01,WeatherCatV1.22B15,2013-12-05 18:57:00,
2013-12-05 14:01:00,49.7,46.9,29.98,South,171,0.0,0.0,90,0.00,,,0.01,WeatherCatV1.22B15,2013-12-05 19:01:00,
2013-12-05 14:06:00,49.7,47.2,29.98,South,171,0.0,0.0,91,0.00,,,0.01,WeatherCatV1.22B15,2013-12-05 19:06:00,
2013-12-05 14:11:00,49.8,47.3,29.98,SSE,151,0.0,2.0,91,0.00,,,0.01,WeatherCatV1.22B15,2013-12-05 19:11:00,
2013-12-05 14:17:00,49.9,47.4,29.98,SSE,152,0.0,1.0,91,0.00,,,0.01,WeatherCatV1.22B15,2013-12-05 19:17:00,
2013-12-05 14:22:00,49.9,47.4,29.98,SSE,151,0.0,0.0,91,0.00,,,0.01,WeatherCatV1.22B15,2013-12-05 19:22:00,
2013-12-05 14:27:00,50.0,47.5,29.98,SSE,151,0.0,0.0,91,0.00,,,0.01,WeatherCatV1.22B15,2013-12-05 19:27:00,
2013-12-05 14:32:00,50.0,47.5,29.98,SSE,151,0.0,1.0,91,0.00,,,0.01,WeatherCatV1.22B15,2013-12-05 19:32:00,
2013-12-05 14:36:00,50.1,47.9,29.98,SSE,151,0.0,1.0,92,0.00,,,0.01,WeatherCatV1.22B15,2013-12-05 19:36:00,
2013-12-05 14:41:00,50.2,48.0,29.97,SSE,152,0.0,0.0,92,0.00,,,0.01,WeatherCatV1.22B15,2013-12-05 19:41:00,
2013-12-05 14:46:00,50.2,48.0,29.98,SSE,152,0.0,1.0,92,0.00,,,0.01,WeatherCatV1.22B15,2013-12-05 19:46:00,
2013-12-05 14:51:00,50.2,48.0,29.98,SSE,152,0.0,0.0,92,0.00,,,0.01,WeatherCatV1.22B15,2013-12-05 19:51:00,
2013-12-05 14:56:00,50.2,48.0,29.98,SSE,152,1.0,2.0,92,0.00,,,0.01,WeatherCatV1.22B15,2013-12-05 19:56:00,
2013-12-05 15:01:00,50.2,48.2,29.98,SSE,152,0.0,0.0,93,0.00,,,0.01,WeatherCatV1.22B15,2013-12-05 20:01:00,
2013-12-05 15:06:00,50.2,48.2,29.98,SSE,152,0.0,0.0,93,0.00,,,0.01,WeatherCatV1.22B15,2013-12-05 20:06:00,
2013-12-05 15:11:00,50.2,48.2,29.98,SSE,151,0.0,0.0,93,0.00,,,0.01,WeatherCatV1.22B15,2013-12-05 20:11:00,
2013-12-05 15:16:00,50.1,48.2,29.97,SE,137,1.0,3.0,93,0.00,,,0.01,WeatherCatV1.22B15,2013-12-05 20:16:00,
2013-12-05 15:21:00,50.1,48.2,29.97,SE,139,0.0,0.0,93,0.00,,,0.01,WeatherCatV1.22B15,2013-12-05 20:21:00,
2013-12-05 15:26:00,50.1,48.4,29.97,SE,139,0.0,1.0,94,0.00,,,0.01,WeatherCatV1.22B15,2013-12-05 20:26:00,
2013-12-05 15:31:00,50.0,48.3,29.97,SSE,152,0.0,0.0,94,0.00,,,0.01,WeatherCatV1.22B15,2013-12-05 20:31:00,
2013-12-05 15:36:00,50.0,48.3,29.97,SSE,152,0.0,0.0,94,0.00,,,0.01,WeatherCatV1.22B15,2013-12-05 20:36:00,
2013-12-05 15:41:00,50.0,48.3,29.97,SSE,152,0.0,0.0,94,0.00,,,0.01,WeatherCatV1.22B15,2013-12-05 20:41:00,
2013-12-05 15:46:00,50.0,48.6,29.97,SSE,152,0.0,0.0,95,0.00,,,0.01,WeatherCatV1.22B15,2013-12-05 20:46:00,
2013-12-05 15:51:00,49.9,48.5,29.96,SSE,152,0.0,1.0,95,0.00,,,0.01,WeatherCatV1.22B15,2013-12-05 20:51:00,
2013-12-05 15:56:00,49.9,48.2,29.96,SSE,159,0.0,0.0,94,0.00,,,0.01,WeatherCatV1.22B15,2013-12-05 20:56:00,
2013-12-05 16:01:00,49.9,48.5,29.96,SSE,157,2.0,5.0,95,0.00,,,0.01,WeatherCatV1.22B15,2013-12-05 21:01:00,
2013-12-05 16:06:00,49.9,48.5,29.95,ESE,107,0.0,1.0,95,0.00,,,0.01,WeatherCatV1.22B15,2013-12-05 21:06:00,
2013-12-05 16:11:00,50.0,48.6,29.96,SE,146,3.0,3.0,95,0.00,,,0.01,WeatherCatV1.22B15,2013-12-05 21:11:00,
2013-12-05 16:16:00,50.0,48.6,29.95,SE,146,0.0,1.0,95,0.00,,,0.01,WeatherCatV1.22B15,2013-12-05 21:16:00,
2013-12-05 16:21:00,50.0,48.6,29.96,SE,146,0.0,0.0,95,0.00,,,0.01,WeatherCatV1.22B15,2013-12-05 21:21:00,
2013-12-05 16:26:00,50.0,48.6,29.96,SSE,162,0.0,0.0,95,0.00,,,0.01,WeatherCatV1.22B15,2013-12-05 21:26:00,
2013-12-05 16:31:00,50.0,48.6,29.96,SSE,162,0.0,0.0,95,0.00,,,0.01,WeatherCatV1.22B15,2013-12-05 21:31:00,
2013-12-05 16:36:00,50.0,48.6,29.96,SSW,199,0.0,2.0,95,0.00,,,0.01,WeatherCatV1.22B15,2013-12-05 21:36:00,
2013-12-05 16:41:00,49.9,48.5,29.96,SSW,199,0.0,0.0,95,0.00,,,0.01,WeatherCatV1.22B15,2013-12-05 21:41:00,
2013-12-05 16:46:00,49.9,48.5,29.96,SSW,199,0.0,0.0,95,0.00,,,0.01,WeatherCatV1.22B15,2013-12-05 21:46:00,
2013-12-05 16:51:00,49.9,48.5,29.96,SSW,199,0.0,0.0,95,0.00,,,0.01,WeatherCatV1.22B15,2013-12-05 21:51:00,
2013-12-05 16:56:00,49.9,48.5,29.97,SW,232,0.0,1.0,95,0.00,,,0.01,WeatherCatV1.22B15,2013-12-05 21:56:00,
2013-12-05 17:01:00,49.9,48.5,29.97,SW,232,0.0,1.0,95,0.00,,,0.01,WeatherCatV1.22B15,2013-12-05 22:01:00,
2013-12-05 17:06:00,49.9,48.8,29.97,South,185,0.0,0.0,96,0.00,,,0.01,WeatherCatV1.22B15,2013-12-05 22:06:00,
2013-12-05 17:11:00,49.9,48.8,29.96,South,185,0.0,0.0,96,0.00,,,0.01,WeatherCatV1.22B15,2013-12-05 22:11:00,
2013-12-05 17:16:00,49.9,48.8,29.96,South,185,0.0,0.0,96,0.00,,,0.01,WeatherCatV1.22B15,2013-12-05 22:16:00,
2013-12-05 17:21:00,49.9,48.8,29.96,South,185,0.0,0.0,96,0.00,,,0.01,WeatherCatV1.22B15,2013-12-05 22:21:00,
2013-12-05 17:26:00,49.9,48.8,29.96,South,185,2.0,2.0,96,0.00,,,0.01,WeatherCatV1.22B15,2013-12-05 22:26:00,
2013-12-05 17:31:00,50.0,48.9,29.95,South,185,0.0,1.0,96,0.00,,,0.01,WeatherCatV1.22B15,2013-12-05 22:31:00,
2013-12-05 17:36:00,50.0,48.9,29.95,South,184,0.0,0.0,96,0.00,,,0.01,WeatherCatV1.22B15,2013-12-05 22:36:00,
2013-12-05 17:41:00,50.0,48.9,29.95,South,184,0.0,0.0,96,0.00,,,0.01,WeatherCatV1.22B15,2013-12-05 22:41:00,
2013-12-05 17:46:00,49.9,48.8,29.96,South,184,0.0,0.0,96,0.00,,,0.01,WeatherCatV1.22B15,2013-12-05 22:46:00,
2013-12-05 17:51:00,49.9,48.8,29.95,South,184,0.0,0.0,96,0.00,,,0.01,WeatherCatV1.22B15,2013-12-05 22:51:00,
2013-12-05 17:56:00,49.9,48.8,29.96,South,184,0.0,0.0,96,0.00,,,0.01,WeatherCatV1.22B15,2013-12-05 22:56:00,
2013-12-05 18:01:00,49.9,48.8,29.96,South,184,0.0,0.0,96,0.00,,,0.01,WeatherCatV1.22B15,2013-12-05 23:01:00,
2013-12-05 18:06:00,50.0,48.9,29.96,South,184,0.0,0.0,96,0.00,,,0.01,WeatherCatV1.22B15,2013-12-05 23:06:00,
2013-12-05 18:11:00,50.0,48.9,29.96,South,184,0.0,0.0,96,0.00,,,0.01,WeatherCatV1.22B15,2013-12-05 23:11:00,
2013-12-05 18:16:00,50.0,49.2,29.96,South,184,0.0,0.0,97,0.00,,,0.01,WeatherCatV1.22B15,2013-12-05 23:16:00,
2013-12-05 18:21:00,50.1,49.3,29.96,South,184,0.0,0.0,97,0.00,,,0.01,WeatherCatV1.22B15,2013-12-05 23:21:00,
2013-12-05 18:26:00,50.2,49.4,29.96,South,184,0.0,0.0,97,0.00,,,0.01,WeatherCatV1.22B15,2013-12-05 23:26:00,
2013-12-05 18:32:00,50.2,49.4,29.96,South,184,0.0,0.0,97,0.00,,,0.01,WeatherCatV1.22B15,2013-12-05 23:32:00,
2013-12-05 18:37:00,50.3,49.5,29.96,SSW,210,1.0,2.0,97,0.00,,,0.01,WeatherCatV1.22B15,2013-12-05 23:37:00,
2013-12-05 18:42:00,50.3,49.5,29.96,SSW,209,0.0,0.0,97,0.00,,,0.01,WeatherCatV1.22B15,2013-12-05 23:42:00,
2013-12-05 18:47:00,50.2,49.4,29.96,SSW,209,0.0,1.0,97,0.00,,,0.01,WeatherCatV1.22B15,2013-12-05 23:47:00,
2013-12-05 18:52:00,50.2,49.4,29.96,SSW,210,0.0,2.0,97,0.00,,,0.01,WeatherCatV1.22B15,2013-12-05 23:52:00,
2013-12-05 18:57:00,50.2,49.4,29.96,SSW,210,0.0,2.0,97,0.00,,,0.01,WeatherCatV1.22B15,2013-12-05 23:57:00,
2013-12-05 19:02:00,50.2,49.4,29.96,SW,229,0.0,4.0,97,0.00,,,0.01,WeatherCatV1.22B15,2013-12-06 00:02:00,
2013-12-05 19:07:00,50.2,49.4,29.96,SW,229,0.0,0.0,97,0.00,,,0.01,WeatherCatV1.22B15,2013-12-06 00:07:00,
2013-12-05 19:12:00,50.2,49.4,29.95,SW,229,0.0,0.0,97,0.00,,,0.01,WeatherCatV1.22B15,2013-12-06 00:12:00,
2013-12-05 19:17:00,50.2,49.4,29.95,SW,229,0.0,0.0,97,0.00,,,0.01,WeatherCatV1.22B15,2013-12-06 00:17:00,
2013-12-05 19:22:00,50.2,49.4,29.94,SW,229,0.0,0.0,97,0.00,,,0.01,WeatherCatV1.22B15,2013-12-06 00:22:00,
2013-12-05 19:27:00,50.2,49.4,29.94,SW,227,1.0,2.0,97,0.00,,,0.01,WeatherCatV1.22B15,2013-12-06 00:27:00,
2013-12-05 19:32:00,50.3,49.5,29.94,SW,217,0.0,1.0,97,0.00,,,0.01,WeatherCatV1.22B15,2013-12-06 00:32:00,
2013-12-05 19:37:00,50.4,49.6,29.94,South,183,0.0,1.0,97,0.00,,,0.01,WeatherCatV1.22B15,2013-12-06 00:37:00,
2013-12-05 19:42:00,50.4,49.6,29.94,SSE,157,0.0,3.0,97,0.00,,,0.01,WeatherCatV1.22B15,2013-12-06 00:42:00,
2013-12-05 19:46:00,50.5,49.7,29.93,SSE,152,2.0,2.0,97,0.00,,,0.01,WeatherCatV1.22B15,2013-12-06 00:46:00,
2013-12-05 19:51:00,50.5,49.7,29.93,South,173,0.0,2.0,97,0.00,,,0.01,WeatherCatV1.22B15,2013-12-06 00:51:00,
2013-12-05 19:56:00,50.6,49.8,29.93,South,170,0.0,4.0,97,0.00,,,0.01,WeatherCatV1.22B15,2013-12-06 00:56:00,
2013-12-05 20:01:00,50.6,49.8,29.92,ESE,110,2.0,2.0,97,0.00,,,0.01,WeatherCatV1.22B15,2013-12-06 01:01:00,
2013-12-05 20:07:00,50.6,49.8,29.92,SE,145,0.0,2.0,97,0.00,,,0.01,WeatherCatV1.22B15,2013-12-06 01:07:00,
2013-12-05 20:12:00,50.7,49.9,29.92,SE,142,2.0,4.0,97,0.00,,,0.01,WeatherCatV1.22B15,2013-12-06 01:12:00,
2013-12-05 20:17:00,50.9,50.1,29.92,SE,140,4.0,5.0,97,0.00,,,0.01,WeatherCatV1.22B15,2013-12-06 01:17:00,
2013-12-05 20:22:00,51.0,50.2,29.92,SSE,156,2.0,4.0,97,0.00,,,0.01,WeatherCatV1.22B15,2013-12-06 01:22:00,
2013-12-05 20:27:00,51.0,50.2,29.92,SSE,156,0.0,2.0,97,0.00,,,0.01,WeatherCatV1.22B15,2013-12-06 01:27:00,
2013-12-05 20:32:00,51.2,50.4,29.92,SSE,156,0.0,2.0,97,0.00,,,0.01,WeatherCatV1.22B15,2013-12-06 01:32:00,
2013-12-05 20:37:00,51.2,50.4,29.92,SSE,156,0.0,1.0,97,0.00,,,0.01,WeatherCatV1.22B15,2013-12-06 01:37:00,
2013-12-05 20:42:00,51.3,50.5,29.91,SE,140,3.0,3.0,97,0.00,,,0.01,WeatherCatV1.22B15,2013-12-06 01:42:00,
2013-12-05 20:47:00,51.4,50.6,29.91,SSE,162,0.0,1.0,97,0.00,,,0.01,WeatherCatV1.22B15,2013-12-06 01:47:00,
2013-12-05 20:52:00,51.5,50.7,29.90,SSE,164,0.0,4.0,97,0.00,,,0.01,WeatherCatV1.22B15,2013-12-06 01:52:00,
2013-12-05 20:57:00,51.5,50.7,29.90,SE,139,0.0,1.0,97,0.00,,,0.01,WeatherCatV1.22B15,2013-12-06 01:57:00,
2013-12-05 21:02:00,51.6,50.8,29.90,SSE,155,0.0,1.0,97,0.00,,,0.01,WeatherCatV1.22B15,2013-12-06 02:02:00,
2013-12-05 21:07:00,51.7,50.9,29.90,South,169,0.0,3.0,97,0.00,,,0.01,WeatherCatV1.22B15,2013-12-06 02:07:00,
2013-12-05 21:12:00,51.8,51.0,29.90,SE,146,1.0,3.0,97,0.00,,,0.01,WeatherCatV1.22B15,2013-12-06 02:12:00,
2013-12-05 21:17:00,52.0,51.2,29.89,SSE,157,5.0,6.0,97,0.00,,,0.01,WeatherCatV1.22B15,2013-12-06 02:17:00,
2013-12-05 21:22:00,52.1,51.3,29.89,SSE,157,2.0,5.0,97,0.00,,,0.01,WeatherCatV1.22B15,2013-12-06 02:22:00,
2013-12-05 21:27:00,52.2,51.1,29.88,SSE,166,3.0,8.0,96,0.00,,,0.01,WeatherCatV1.22B15,2013-12-06 02:27:00,
2013-12-05 21:32:00,52.4,51.3,29.87,SSE,163,2.0,5.0,96,0.00,,,0.01,WeatherCatV1.22B15,2013-12-06 02:32:00,
2013-12-05 21:37:00,52.6,51.5,29.86,SE,130,3.0,9.0,96,0.00,,,0.01,WeatherCatV1.22B15,2013-12-06 02:37:00,
2013-12-05 21:42:00,52.8,51.7,29.86,SSE,163,4.0,10.0,96,0.00,,,0.01,WeatherCatV1.22B15,2013-12-06 02:42:00,
2013-12-05 21:47:00,53.2,52.1,29.86,SSE,153,2.0,5.0,96,0.00,,,0.01,WeatherCatV1.22B15,2013-12-06 02:47:00,
2013-12-05 21:52:00,53.4,52.0,29.85,South,172,5.0,8.0,95,0.00,,,0.01,WeatherCatV1.22B15,2013-12-06 02:52:00,
2013-12-05 21:57:00,53.6,52.2,29.85,SSE,165,8.0,10.0,95,0.00,,,0.01,WeatherCatV1.22B15,2013-12-06 02:57:00,
2013-12-05 22:02:00,53.9,52.5,29.84,SSE,148,3.0,10.0,95,0.00,,,0.01,WeatherCatV1.22B15,2013-12-06 03:02:00,
2013-12-05 22:07:00,54.2,52.8,29.84,ESE,123,1.0,10.0,95,0.00,,,0.01,WeatherCatV1.22B15,2013-12-06 03:07:00,
2013-12-05 22:12:00,54.6,53.2,29.85,SE,126,4.0,4.0,95,0.00,,,0.01,WeatherCatV1.22B15,2013-12-06 03:12:00,
2013-12-05 22:17:00,54.8,53.1,29.85,West,277,1.0,3.0,94,0.00,,,0.01,WeatherCatV1.22B15,2013-12-06 03:17:00,
2013-12-05 22:22:00,54.9,53.2,29.86,WSW,257,4.0,5.0,94,0.00,,,0.01,WeatherCatV1.22B15,2013-12-06 03:22:00,
2013-12-05 22:27:00,55.1,53.4,29.85,SE,136,3.0,8.0,94,0.00,,,0.01,WeatherCatV1.22B15,2013-12-06 03:27:00,
2013-12-05 22:32:00,55.4,53.7,29.85,SW,231,1.0,11.0,94,0.00,,,0.01,WeatherCatV1.22B15,2013-12-06 03:32:00,
2013-12-05 22:37:00,55.6,53.9,29.86,SSE,155,0.0,6.0,94,0.00,,,0.01,WeatherCatV1.22B15,2013-12-06 03:37:00,
2013-12-05 22:42:00,55.7,54.0,29.86,SSE,155,4.0,7.0,94,0.00,,,0.01,WeatherCatV1.22B15,2013-12-06 03:42:00,
2013-12-05 22:47:00,55.8,54.1,29.86,SSE,156,2.0,6.0,94,0.00,,,0.01,WeatherCatV1.22B15,2013-12-06 03:47:00,
2013-12-05 22:52:00,55.8,54.1,29.86,SSE,159,1.0,11.0,94,0.00,,,0.01,WeatherCatV1.22B15,2013-12-06 03:52:00,
2013-12-05 22:57:00,55.8,54.1,29.86,SSE,155,1.0,7.0,94,0.00,,,0.01,WeatherCatV1.22B15,2013-12-06 03:57:00,
2013-12-05 23:02:00,55.7,54.0,29.86,South,184,1.0,6.0,94,0.00,,,0.01,WeatherCatV1.22B15,2013-12-06 04:02:00,
2013-12-05 23:07:00,55.6,53.9,29.87,WSW,240,2.0,6.0,94,0.00,,,0.01,WeatherCatV1.22B15,2013-12-06 04:07:00,
2013-12-05 23:12:00,55.5,53.8,29.88,SW,236,3.0,6.0,94,0.00,,,0.01,WeatherCatV1.22B15,2013-12-06 04:12:00,
2013-12-05 23:17:00,55.4,53.7,29.88,West,281,4.0,10.0,94,0.00,,,0.01,WeatherCatV1.22B15,2013-12-06 04:17:00,
2013-12-05 23:22:00,55.3,53.6,29.88,SW,219,3.0,3.0,94,0.00,,,0.01,WeatherCatV1.22B15,2013-12-06 04:22:00,
2013-12-05 23:27:00,55.3,53.6,29.88,West,271,2.0,2.0,94,0.00,,,0.01,WeatherCatV1.22B15,2013-12-06 04:27:00,
2013-12-05 23:32:00,55.3,53.6,29.87,SW,225,0.0,8.0,94,0.00,,,0.01,WeatherCatV1.22B15,2013-12-06 04:32:00,
2013-12-05 23:37:00,55.2,53.5,29.86,SW,234,2.0,5.0,94,0.00,,,0.01,WeatherCatV1.22B15,2013-12-06 04:37:00,
2013-12-05 23:42:00,55.2,53.5,29.86,SSE,157,3.0,5.0,94,0.00,,,0.01,WeatherCatV1.22B15,2013-12-06 04:42:00,
2013-12-05 23:47:00,55.1,53.4,29.86,SW,215,2.0,6.0,94,0.00,,,0.01,WeatherCatV1.22B15,2013-12-06 04:47:00,
2013-12-05 23:52:00,55.0,53.3,29.86,WSW,238,0.0,6.0,94,0.00,,,0.01,WeatherCatV1.22B15,2013-12-06 04:52:00,
2013-12-05 23:57:00,54.9,53.2,29.86,SW,215,0.0,6.0,94,0.00,,,0.01,WeatherCatV1.22B15,2013-12-06 04:57:00,